Regional Weather Roundup
Issued by NWS

Home | Current Version | Previous Version | Graphics & Text | Print | Product List | Glossary On
Versions: 1 2 3 4 5 6 7 8 9 10 11 12 13 14 15 16 17 18 19 20 21 22 23 24 25 26 27 28 29 30 31 32 33 34 35 36 37 38 39 40 41 42 43 44 45 46 47 48 49 50
598
ASUS43 KLMK 300410
RWRKY
KENTUCKY REGIONAL WEATHER ROUNDUP
NATIONAL WEATHER SERVICE LOUISVILLE KY
1200 AM EDT SAT APR 30 2016

NOTE "FAIR" INDICATES FEW OR NO CLOUDS BELOW 12,000 FEET
WITH NO SIGNIFICANT WEATHER AND/OR OBSTRUCTIONS TO VISIBILITY.

KYZ001>023-026-027-061>063-070>075-300500-
WESTERN AND SOUTH CENTRAL KENTUCKY

CITY           SKY/WX    TMP DP  RH WIND       PRES   REMARKS
PADUCAH        CLOUDY    61  58  90 E9        29.92F
HENDERSON      CLOUDY    63  52  67 E8        29.98S
OWENSBORO      LGT RAIN  64  55  72 SE7       30.01R
HOPKINSVILLE   CLOUDY    63  60  88 E6        29.94F
BOWLING GREEN  CLOUDY    65  59  81 E6        29.98F
GLASGOW        CLOUDY    64  56  75 E7        29.99F
$$

KYZ024-025-028>034-038-045-046-053-300500-
NORTH CENTRAL KENTUCKY

CITY           SKY/WX    TMP DP  RH WIND       PRES   REMARKS
LOUISVILLE/SDF CLOUDY    66  48  52 E7        30.01F
LOUISVILLE/LOU CLOUDY    65  49  56 E3        30.02F
FORT KNOX      LGT RAIN  63  50  63 NE9       29.99F
$$

KYZ035>037-039>044-047>052-055>060-089>105-300500-
NORTHEAST KENTUCKY

CITY           SKY/WX    TMP DP  RH WIND       PRES   REMARKS
LEXINGTON      CLOUDY    62  49  62 NE9       30.04F
COVINGTON      NOT AVBL
FRANKFORT      CLOUDY    63  49  60 NE10      30.02F
$$

KYZ054-064>069-076>088-106>120-300500-
SOUTHEAST KENTUCKY

CITY           SKY/WX    TMP DP  RH WIND       PRES   REMARKS
JACKSON        CLOUDY    62  50  64 VRB3      30.02F
LONDON         CLOUDY    65  51  60 NE7       30.04F
SOMERSET       CLOUDY    63  52  67 CALM      30.04R
MIDDLESBORO    CLOUDY    63  55  76 CALM      30.03F
MONTICELLO     CLOUDY    65  56  72 W8        30.05R
$$





USA.gov is the U.S. government's official web portal to all federal, state and local government web resources and services.